TimeAKDT,TemperatureF,Dew PointF,Humidity,Sea Level PressureIn,VisibilityMPH,Wind Direction,Wind SpeedMPH,Gust SpeedMPH,PrecipitationIn,Events,Conditions,WindDirDegrees,DateUTC
12:16 AM,42.8,41.0,93,30.14,10.0,Calm,Calm,-,N/A,,Overcast,0,2012-10-09 08:16:00
12:36 AM,42.8,39.2,87,30.14,10.0,East,3.5,-,N/A,,Overcast,100,2012-10-09 08:36:00
12:56 AM,42.8,41.0,93,30.13,10.0,Calm,Calm,-,N/A,,Overcast,0,2012-10-09 08:56:00
1:16 AM,42.8,41.0,93,30.13,10.0,Calm,Calm,-,N/A,,Overcast,0,2012-10-09 09:16:00
1:36 AM,42.8,39.2,87,30.13,9.0,Calm,Calm,-,N/A,,Overcast,0,2012-10-09 09:36:00
1:56 AM,42.8,41.0,93,30.13,10.0,Calm,Calm,-,N/A,,Overcast,0,2012-10-09 09:56:00
2:16 AM,42.8,39.2,87,30.12,10.0,Calm,Calm,-,N/A,,Overcast,0,2012-10-09 10:16:00
2:36 AM,42.8,41.0,93,30.12,10.0,Calm,Calm,-,N/A,,Overcast,0,2012-10-09 10:36:00
2:56 AM,42.8,41.0,93,30.12,10.0,Calm,Calm,-,N/A,,Overcast,0,2012-10-09 10:56:00
3:16 AM,42.8,41.0,93,30.11,10.0,Calm,Calm,-,N/A,,Overcast,0,2012-10-09 11:16:00
3:36 AM,42.8,41.0,93,30.11,10.0,Calm,Calm,-,N/A,,Overcast,0,2012-10-09 11:36:00
3:56 AM,42.8,39.2,87,30.11,10.0,Calm,Calm,-,N/A,,Overcast,0,2012-10-09 11:56:00
4:16 AM,42.8,41.0,93,30.10,10.0,Calm,Calm,-,N/A,,Overcast,0,2012-10-09 12:16:00
4:36 AM,42.8,39.2,87,30.10,10.0,Calm,Calm,-,N/A,,Overcast,0,2012-10-09 12:36:00
4:56 AM,42.8,39.2,87,30.10,10.0,Calm,Calm,-,N/A,,Overcast,0,2012-10-09 12:56:00
5:16 AM,42.8,39.2,87,30.09,10.0,Calm,Calm,-,N/A,,Overcast,0,2012-10-09 13:16:00
5:36 AM,42.8,39.2,87,30.09,10.0,Calm,Calm,-,N/A,,Overcast,0,2012-10-09 13:36:00
5:56 AM,42.8,39.2,87,30.09,7.0,Calm,Calm,-,N/A,,Overcast,0,2012-10-09 13:56:00
6:16 AM,42.8,41.0,93,30.09,7.0,Calm,Calm,-,N/A,,Overcast,0,2012-10-09 14:16:00
6:36 AM,42.8,39.2,87,30.09,7.0,Calm,Calm,-,N/A,,Overcast,0,2012-10-09 14:36:00
6:56 AM,42.8,37.4,81,30.09,7.0,Calm,Calm,-,N/A,,Overcast,0,2012-10-09 14:56:00
7:16 AM,42.8,39.2,87,30.09,7.0,Calm,Calm,-,N/A,,Overcast,0,2012-10-09 15:16:00
7:36 AM,42.8,39.2,87,30.09,7.0,Calm,Calm,-,N/A,,Overcast,0,2012-10-09 15:36:00
7:56 AM,42.8,39.2,87,30.09,5.0,Calm,Calm,-,N/A,,Overcast,0,2012-10-09 15:56:00
8:16 AM,42.8,39.2,87,30.09,5.0,Calm,Calm,-,N/A,,Overcast,0,2012-10-09 16:16:00
8:36 AM,42.8,39.2,87,30.09,3.0,East,3.5,-,N/A,,Overcast,80,2012-10-09 16:36:00
8:56 AM,42.8,39.2,87,30.09,3.0,Calm,Calm,-,N/A,,Overcast,0,2012-10-09 16:56:00
9:16 AM,42.8,39.2,87,30.09,3.0,East,3.5,-,N/A,,Overcast,90,2012-10-09 17:16:00
9:36 AM,42.8,39.2,87,30.08,3.0,Calm,Calm,-,N/A,,Overcast,0,2012-10-09 17:36:00
9:56 AM,42.8,41.0,93,30.08,3.0,Calm,Calm,-,N/A,,Overcast,0,2012-10-09 17:56:00
10:16 AM,42.8,39.2,87,30.08,3.0,Calm,Calm,-,N/A,,Overcast,0,2012-10-09 18:16:00
10:36 AM,42.8,39.2,87,30.08,3.0,Calm,Calm,-,N/A,,Overcast,0,2012-10-09 18:36:00
10:56 AM,42.8,41.0,93,30.08,3.0,Calm,Calm,-,N/A,,Overcast,0,2012-10-09 18:56:00
11:16 AM,42.8,39.2,87,30.09,3.0,West,4.6,-,N/A,,Overcast,270,2012-10-09 19:16:00
11:36 AM,42.8,39.2,87,30.08,3.0,Calm,Calm,-,N/A,,Overcast,0,2012-10-09 19:36:00
11:56 AM,42.8,39.2,87,30.08,3.0,Calm,Calm,-,N/A,,Overcast,0,2012-10-09 19:56:00
12:16 PM,42.8,39.2,87,30.08,3.0,Calm,Calm,-,N/A,,Overcast,0,2012-10-09 20:16:00
12:36 PM,44.6,41.0,87,30.08,3.0,Calm,Calm,-,N/A,,Overcast,0,2012-10-09 20:36:00
12:56 PM,44.6,42.8,93,30.07,3.0,Calm,Calm,-,N/A,,Mostly Cloudy,0,2012-10-09 20:56:00
1:16 PM,44.6,42.8,93,30.06,5.0,SSW,4.6,-,N/A,,Mostly Cloudy,210,2012-10-09 21:16:00
1:36 PM,44.6,41.0,87,30.06,5.0,West,4.6,-,N/A,,Mostly Cloudy,260,2012-10-09 21:36:00
1:56 PM,44.6,42.8,93,30.06,10.0,West,3.5,-,N/A,,Mostly Cloudy,260,2012-10-09 21:56:00
2:16 PM,44.6,42.8,93,30.05,10.0,Calm,Calm,-,N/A,,Mostly Cloudy,0,2012-10-09 22:16:00
2:36 PM,46.4,42.8,87,30.05,10.0,Calm,Calm,-,N/A,,Scattered Clouds,0,2012-10-09 22:36:00
2:56 PM,46.4,42.8,87,30.05,10.0,WSW,3.5,-,N/A,,Scattered Clouds,240,2012-10-09 22:56:00
3:16 PM,46.4,42.8,87,30.06,10.0,WSW,6.9,-,N/A,,Scattered Clouds,250,2012-10-09 23:16:00
3:36 PM,46.4,42.8,87,30.05,10.0,WSW,4.6,-,N/A,,Scattered Clouds,240,2012-10-09 23:36:00
3:56 PM,46.4,42.8,87,30.05,10.0,SW,4.6,-,N/A,,Mostly Cloudy,220,2012-10-09 23:56:00
4:16 PM,48.2,44.6,87,30.04,10.0,WSW,5.8,-,N/A,,Mostly Cloudy,240,2012-10-10 00:16:00
4:36 PM,48.2,42.8,82,30.04,10.0,WSW,3.5,-,N/A,,Mostly Cloudy,250,2012-10-10 00:36:00
4:56 PM,48.2,42.8,82,30.04,10.0,WSW,5.8,-,N/A,,Mostly Cloudy,240,2012-10-10 00:56:00
5:16 PM,46.4,42.8,87,30.04,10.0,WSW,4.6,-,N/A,,Mostly Cloudy,240,2012-10-10 01:16:00
5:36 PM,46.4,44.6,93,30.04,10.0,SW,5.8,-,N/A,,Mostly Cloudy,230,2012-10-10 01:36:00
5:56 PM,46.4,42.8,87,30.04,10.0,WSW,3.5,-,N/A,,Mostly Cloudy,240,2012-10-10 01:56:00
6:16 PM,44.6,41.0,87,30.04,10.0,West,3.5,-,N/A,,Mostly Cloudy,270,2012-10-10 02:16:00
6:36 PM,46.4,42.8,87,30.04,10.0,Calm,Calm,-,N/A,,Mostly Cloudy,0,2012-10-10 02:36:00
6:56 PM,44.6,41.0,87,30.04,10.0,WSW,4.6,-,N/A,,Mostly Cloudy,240,2012-10-10 02:56:00
7:16 PM,44.6,41.0,87,30.05,10.0,Calm,Calm,-,N/A,,Mostly Cloudy,0,2012-10-10 03:16:00
7:36 PM,44.6,41.0,87,30.04,10.0,Calm,Calm,-,N/A,,Mostly Cloudy,0,2012-10-10 03:36:00
7:56 PM,42.8,39.2,87,30.04,10.0,NE,4.6,-,N/A,,Partly Cloudy,40,2012-10-10 03:56:00
8:16 PM,42.8,39.2,87,30.04,10.0,SSE,3.5,-,N/A,,Partly Cloudy,150,2012-10-10 04:16:00
8:36 PM,42.8,37.4,81,30.04,10.0,Calm,Calm,-,N/A,,Partly Cloudy,0,2012-10-10 04:36:00
8:56 PM,41.0,37.4,87,30.04,7.0,Calm,Calm,-,N/A,,Partly Cloudy,0,2012-10-10 04:56:00
9:16 PM,41.0,37.4,87,30.05,7.0,Calm,Calm,-,N/A,,Partly Cloudy,0,2012-10-10 05:16:00
9:36 PM,42.8,39.2,87,30.04,7.0,Calm,Calm,-,N/A,,Partly Cloudy,0,2012-10-10 05:36:00
9:56 PM,41.0,37.4,87,30.05,3.0,Calm,Calm,-,N/A,,Scattered Clouds,0,2012-10-10 05:56:00
10:16 PM,41.0,39.2,93,30.04,0.5,Calm,Calm,-,N/A,,Overcast,0,2012-10-10 06:16:00
10:36 PM,41.0,39.2,93,30.05,0.2,SSW,3.5,-,N/A,,Overcast,210,2012-10-10 06:36:00
10:56 PM,39.2,39.2,100,30.05,0.5,Calm,Calm,-,N/A,,Overcast,0,2012-10-10 06:56:00
11:16 PM,39.2,37.4,93,30.05,0.2,Calm,Calm,-,N/A,,Overcast,0,2012-10-10 07:16:00
11:36 PM,39.2,37.4,93,30.05,0.2,Calm,Calm,-,N/A,,Overcast,0,2012-10-10 07:36:00
11:56 PM,39.2,37.4,93,30.05,0.5,Calm,Calm,-,N/A,,Overcast,0,2012-10-10 07:56:00